Date String (YYYY-MM-DD hh:mm:ss) UTC,Instrument flags,Ambient pressure (hPa),Sample flow (lpm),Bypass flow (lpm),Sample temperature (°C),Ambient temperature (°C),ASC tube jacket temperature (°C),LED temperature (°C),Box temperature (°C),Sample RH (%),Span deviation,Mass concentration (μg/m³),Mass concentration (μg/m³),Mass concentration (μg/m³)
DateTimeUTC,F1_M11,P_M11,Q1_M11,Q2_M11,T1_M11,T2_M11,T3_M11,T4_M11,T5_M11,U1_M11,ZSPAN_M11,X2_M11,X0_M11,X1_M11
2022-10-07 01:00:00,,0833.4,5.00,0.00,29.8,28.8,00.0,38.4,31.7,15.5,0000.0,0006.23,0013.34,0005.61
2022-10-07 01:01:00,,0833.5,5.00,0.00,29.8,28.8,00.0,38.4,31.7,15.5,0000.9,0006.17,0011.82,0005.59
2022-10-07 01:02:00,,0833.5,5.00,0.00,29.8,28.8,00.0,38.5,31.8,15.5,0001.5,0006.14,0011.62,0005.58
2022-10-07 01:03:00,,0833.5,5.00,0.00,29.9,28.9,00.0,38.5,31.8,15.6,0001.6,0006.10,0011.35,0005.53
2022-10-07 01:04:00,,0833.5,5.00,0.00,29.9,28.9,00.0,38.5,31.8,15.6,0001.6,0006.04,0011.79,0005.44
2022-10-07 01:05:00,,0833.5,5.01,0.00,29.9,29.0,00.0,38.5,31.9,15.6,0001.4,0005.96,0012.28,0005.35
2022-10-07 01:06:00,,0833.5,5.01,0.00,30.0,28.6,00.0,38.6,31.9,15.5,0001.6,0005.90,0012.24,0005.30
2022-10-07 01:07:00,,0833.5,4.99,0.00,29.9,27.2,00.0,38.5,31.7,15.5,0001.5,0005.76,0012.04,0005.21
2022-10-07 01:08:00,,0833.5,5.01,0.00,29.9,26.6,00.0,38.5,31.5,15.5,0001.9,0005.67,0012.11,0005.12
2022-10-07 01:09:00,,0833.5,5.01,0.00,29.8,26.7,00.0,38.5,31.4,15.5,0001.0,0005.60,0011.54,0005.04
2022-10-07 01:10:00,,0833.5,5.01,0.00,29.7,27.0,00.0,38.5,31.4,15.7,0000.9,0005.52,0011.54,0004.96
2022-10-07 01:11:00,,0833.5,4.99,0.00,29.7,27.3,00.0,38.4,31.4,15.7,0001.3,0005.47,0011.55,0004.89
2022-10-07 01:12:00,,0833.6,4.99,0.00,29.7,27.6,00.0,38.4,31.4,15.8,0001.1,0005.46,0011.66,0004.84
2022-10-07 01:13:00,,0833.5,5.00,0.00,29.7,27.8,00.0,38.4,31.5,15.8,0001.2,0005.45,0011.03,0004.80
2022-10-07 01:14:00,,0833.5,5.00,0.00,29.7,28.0,00.0,38.4,31.5,15.8,0001.0,0005.45,0011.11,0004.76
2022-10-07 01:15:00,,0833.6,4.99,0.00,29.7,28.2,00.0,38.4,31.5,15.9,0001.1,0005.44,0011.05,0004.74
2022-10-07 01:16:00,,0833.6,5.01,0.00,29.7,28.3,00.0,38.4,31.6,15.9,0000.8,0005.44,0011.45,0004.72
2022-10-07 01:17:00,,0833.6,5.00,0.00,29.7,28.4,00.0,38.4,31.6,15.9,0000.3,0005.42,0011.69,0004.70
2022-10-07 01:18:00,,0833.6,5.00,0.00,29.7,28.5,00.0,38.4,31.6,15.8,0000.7,0005.36,0012.17,0004.66
2022-10-07 01:19:00,,0833.6,4.99,0.00,29.7,28.5,00.0,38.4,31.6,15.8,0000.9,0005.31,0012.77,0004.63
2022-10-07 01:20:00,,0833.6,5.02,0.00,29.8,28.6,00.0,38.5,31.7,15.8,0001.2,0005.28,0012.87,0004.59
2022-10-07 01:21:00,,0833.6,4.99,0.00,29.8,28.7,00.0,38.5,31.7,15.8,0001.5,0005.21,0013.25,0004.55
2022-10-07 01:22:00,,0833.6,5.01,0.00,29.8,28.8,00.0,38.5,31.7,15.8,0000.8,0005.16,0013.54,0004.49
2022-10-07 01:23:00,,0833.7,4.99,0.00,29.9,28.8,00.0,38.5,31.7,15.8,0000.0,0005.13,0014.03,0004.46
2022-10-07 01:24:00,,0833.6,5.00,0.00,29.9,28.8,00.0,38.5,31.8,15.8,0000.0,0005.04,0014.07,0004.42
2022-10-07 01:25:00,,0833.7,5.00,0.00,29.9,28.0,00.0,38.5,31.8,15.7,0000.0,0004.99,0014.06,0004.38
2022-10-07 01:26:00,,0833.6,5.00,0.00,29.8,26.5,00.0,38.5,31.6,15.8,0000.0,0004.94,0014.16,0004.35
2022-10-07 01:27:00,,0833.6,5.00,0.00,29.8,26.4,00.0,38.5,31.4,15.9,0000.0,0004.86,0012.92,0004.33
2022-10-07 01:28:00,,0833.7,5.00,0.00,29.7,26.6,00.0,38.4,31.3,16.0,0000.0,0004.86,0012.50,0004.30
2022-10-07 01:29:00,,0833.7,4.99,0.00,29.6,26.9,00.0,38.4,31.3,16.0,-000.2,0004.89,0012.12,0004.28
2022-10-07 01:30:00,,0833.7,5.00,0.00,29.6,27.2,00.0,38.4,31.3,16.0,-000.7,0004.91,0011.34,0004.27
2022-10-07 01:31:00,,0833.7,5.00,0.00,29.6,27.5,00.0,38.4,31.3,16.1,-000.7,0004.91,0011.60,0004.27
2022-10-07 01:32:00,,0833.8,5.01,0.00,29.6,27.7,00.0,38.4,31.4,16.1,-000.1,0004.92,0011.57,0004.28
2022-10-07 01:33:00,,0833.8,4.99,0.00,29.6,27.9,00.0,38.3,31.4,16.1,0000.2,0004.93,0011.27,0004.29
2022-10-07 01:34:00,,0833.8,5.00,0.00,29.6,28.0,00.0,38.3,31.4,16.1,0000.3,0004.90,0010.84,0004.30
2022-10-07 01:35:00,,0833.8,4.98,0.00,29.6,28.2,00.0,38.3,31.4,16.1,0000.4,0004.92,0011.05,0004.30
2022-10-07 01:36:00,,0833.9,5.01,0.00,29.6,28.3,00.0,38.4,31.5,16.1,0000.6,0004.89,0010.82,0004.30
2022-10-07 01:37:00,,0833.8,4.99,0.00,29.6,28.4,00.0,38.4,31.5,16.0,0000.0,0004.89,0010.49,0004.30
2022-10-07 01:38:00,,0833.9,5.00,0.00,29.7,28.4,00.0,38.4,31.5,16.1,0000.0,0004.90,0011.21,0004.29
2022-10-07 01:39:00,,0833.8,4.98,0.00,29.7,28.5,00.0,38.4,31.6,16.1,0000.0,0004.88,0011.27,0004.29
2022-10-07 01:40:00,,0833.9,5.01,0.00,29.7,28.6,00.0,38.4,31.6,16.1,0000.0,0004.86,0011.45,0004.29
2022-10-07 01:41:00,,0833.9,5.00,0.00,29.7,28.6,00.0,38.4,31.7,16.0,0000.0,0004.87,0011.82,0004.29
2022-10-07 01:42:00,,0833.8,4.99,0.00,29.8,28.7,00.0,38.4,31.7,16.0,0001.2,0004.88,0011.64,0004.28
2022-10-07 01:43:00,,0833.9,5.01,0.00,29.8,28.7,00.0,38.4,31.7,15.9,0000.4,0004.89,0011.33,0004.27
2022-10-07 01:44:00,,0833.9,4.99,0.00,29.8,28.7,00.0,38.5,31.8,15.9,0000.0,0004.89,0011.19,0004.26
2022-10-07 01:45:00,,0833.9,4.99,0.00,29.8,28.8,00.0,38.5,31.8,15.9,0000.0,0004.92,0011.64,0004.25
2022-10-07 01:46:00,,0834.0,4.98,0.00,29.9,28.8,00.0,38.5,31.8,15.9,0000.2,0004.90,0011.11,0004.24
2022-10-07 01:47:00,,0834.0,5.00,0.00,29.9,28.9,00.0,38.5,31.8,15.9,0001.4,0004.92,0011.17,0004.24
2022-10-07 01:48:00,,0834.0,4.99,0.00,29.9,28.9,00.0,38.6,31.9,15.9,0001.3,0004.90,0010.99,0004.25
2022-10-07 01:49:00,,0834.0,5.00,0.00,29.9,28.9,00.0,38.6,31.9,15.8,0000.6,0004.90,0010.32,0004.27
2022-10-07 01:50:00,,0834.0,4.99,0.00,30.0,28.9,00.0,38.6,31.9,15.8,0000.1,0004.89,0010.17,0004.28
2022-10-07 01:51:00,,0834.0,5.01,0.00,30.0,28.9,00.0,38.6,31.9,15.7,0000.6,0004.94,0010.24,0004.29
2022-10-07 01:52:00,,0834.0,5.00,0.00,30.0,27.5,00.0,38.6,31.8,15.8,0001.1,0004.93,0009.78,0004.31
2022-10-07 01:53:00,,0834.0,5.00,0.00,29.9,26.5,00.0,38.6,31.7,15.9,0001.3,0004.91,0009.36,0004.32
2022-10-07 01:54:00,,0834.0,5.00,0.00,29.9,26.5,00.0,38.5,31.5,15.9,0000.9,0004.90,0009.33,0004.33
2022-10-07 01:55:00,,0834.0,5.00,0.00,29.8,26.8,00.0,38.5,31.4,16.0,0001.2,0004.91,0009.34,0004.33
2022-10-07 01:56:00,,0834.1,5.00,0.00,29.7,27.2,00.0,38.5,31.4,16.2,0001.4,0004.89,0009.05,0004.34
2022-10-07 01:57:00,,0834.1,5.01,0.00,29.7,27.4,00.0,38.5,31.4,16.2,0001.4,0004.90,0009.43,0004.34
2022-10-07 01:58:00,,0834.0,5.00,0.00,29.7,27.7,00.0,38.4,31.4,16.1,0001.1,0004.90,0010.22,0004.34
2022-10-07 01:59:00,,0834.1,4.99,0.00,29.7,27.8,00.0,38.4,31.4,16.0,0001.0,0004.91,0010.76,0004.33
